Simultaneous Nadir Overpasses (SNOs) Predictions

Prediction of SNOs over PacNW region [( 10.00, 139.50) to ( 22.70, 165.60)] between AQUA and NPP Satellites:

Table of predicted SNOs over PacNW region for the next 30.0 days since TLE Epoch: 7/13/2012
Index Date (AQUA) Time (AQUA) AQUA Lat,Lon Date (NPP) Time (NPP) NPP Lat,Lon Distance(km) Time Diff (sec)
1 07/21/2012 15:59:29 22.60, 147.40 07/21/2012 15:59:55 23.21, 144.59 296.38 26
2 07/29/2012 15:10:31 20.30, 159.25 07/29/2012 15:09:52 20.78, 156.65 275.42 39
3 08/06/2012 15:59:04 22.63, 147.48 08/06/2012 15:59:54 23.28, 144.58 306.19 50




NCC Satellite Simultaneous Nadir Overpasses (SNOs) Prediction Service
